Athens Eleftherios, Greece

10:46 AM EEST on March 28, 2017 (GMT +0300)
Eleftherios Venizelos International

Weather History for LGAV - January, 2013

Change the Weather History Date:

Thursday, January 17, 2013

  Actual Average Record
Temperature  
Mean Temperature 54 °F -  
Max Temperature 60 °F - - ()
Min Temperature 48 °F - - ()
Degree Days  
Heating Degree Days 11    
Growing Degree Days 4 (Base 50)    
Moisture  
Dew Point 44 °F    
Average Humidity 66    
Maximum Humidity 77    
Minimum Humidity 51    
Precipitation  
Precipitation 0.00 in - - ()
Sea Level Pressure  
Sea Level Pressure 29.74 in    
Wind  
Wind Speed 11 mph ()    
Max Wind Speed 26 mph    
Max Gust Speed -    
Visibility 6.2 miles    
Events Rain    
T = Trace of Precipitation, MM = Missing Value Source: Averaged Metar Reports

Daily Weather History Graph

Daily Weather History Graph

Search for Another Location

Airport or City:

Trip Planner

Search our weather history database for the weather conditions in past years. The results will help you decide how hot, cold, wet, or windy it might be!

Date:

Astronomy

Jan. 17, 2013 Rise Set
Actual Time 7:38 AM EET 5:30 PM EET
Civil Twilight 7:09 AM EET 5:59 PM EET
Nautical Twilight 6:37 AM EET 6:31 PM EET
Astronomical Twilight 6:05 AM EET 7:03 PM EET
Moon 10:42 AM EET (1/17) 11:56 PM EET (1/17)
Length of Visible Light 10h 50m
Length of Day
9h 52m
Waxing Crescent, 34% of the Moon is Illuminated
Jan 17
Waxing Crescent
Jan 19
First Quarter
Jan 27
Full
Feb 3
Last Quarter
Feb 10
New

Hourly Weather History & Observations

Time (EET) Temp. Dew Point Humidity Pressure Visibility Wind Dir Wind Speed Gust Speed Precip Events Conditions
12:20 AM 51.8 °F 42.8 °F 71% 29.68 in 6.2 mi SW 10.4 mph - N/A   Scattered Clouds
12:50 AM 50.0 °F 41.0 °F 71% 29.71 in 6.2 mi SW 11.5 mph - N/A   Scattered Clouds
1:20 AM 50.0 °F 39.2 °F 66% 29.71 in 6.2 mi WSW 10.4 mph - N/A   Scattered Clouds
1:50 AM 50.0 °F 39.2 °F 66% 29.71 in 6.2 mi WSW 13.8 mph - N/A   Scattered Clouds
2:20 AM 50.0 °F 39.2 °F 66% 29.74 in 6.2 mi WSW 8.1 mph - N/A   Scattered Clouds
2:50 AM 50.0 °F 39.2 °F 66% 29.71 in 6.2 mi WSW 10.4 mph - N/A   Partly Cloudy
3:20 AM 48.2 °F 39.2 °F 71% 29.71 in 6.2 mi SSW 8.1 mph - N/A   Partly Cloudy
3:50 AM 50.0 °F 39.2 °F 66% 29.74 in 6.2 mi WSW 4.6 mph - N/A   Partly Cloudy
4:20 AM 50.0 °F 39.2 °F 66% 29.74 in 6.2 mi WSW 6.9 mph - N/A   Partly Cloudy
4:50 AM 50.0 °F 39.2 °F 66% 29.74 in 6.2 mi SW 10.4 mph - N/A   Partly Cloudy
5:20 AM 48.2 °F 37.4 °F 66% 29.74 in 6.2 mi South 6.9 mph - N/A   Scattered Clouds
5:50 AM 48.2 °F 39.2 °F 71% 29.74 in 6.2 mi SSW 9.2 mph - N/A   Scattered Clouds
6:20 AM 50.0 °F 39.2 °F 66% 29.74 in 6.2 mi SSW 6.9 mph - N/A   Scattered Clouds
6:50 AM 50.0 °F 39.2 °F 66% 29.74 in 6.2 mi South 4.6 mph - N/A   Scattered Clouds
7:20 AM 50.0 °F 39.2 °F 66% 29.74 in 6.2 mi SSW 4.6 mph - N/A   Scattered Clouds
7:50 AM 50.0 °F 39.2 °F 66% 29.77 in 6.2 mi South 6.9 mph - N/A   Scattered Clouds
8:20 AM 50.0 °F 41.0 °F 71% 29.77 in 6.2 mi SSW 4.6 mph - N/A   Scattered Clouds
8:50 AM 51.8 °F 42.8 °F 71% 29.77 in 6.2 mi Calm Calm - N/A   Scattered Clouds
9:20 AM 55.4 °F 42.8 °F 63% 29.80 in 6.2 mi South 6.9 mph - N/A   Scattered Clouds
9:50 AM 53.6 °F 42.8 °F 67% 29.80 in 6.2 mi South 4.6 mph - N/A   Scattered Clouds
10:20 AM 57.2 °F 44.6 °F 63% 29.80 in 6.2 mi South 5.8 mph - N/A   Scattered Clouds
10:50 AM 59.0 °F 42.8 °F 55% 29.80 in 6.2 mi SSW 12.7 mph - N/A   Scattered Clouds
11:20 AM 59.0 °F 41.0 °F 51% 29.80 in 6.2 mi South 9.2 mph - N/A   Mostly Cloudy
11:50 AM 59.0 °F 42.8 °F 55% 29.77 in 6.2 mi SSW 11.5 mph - N/A   Mostly Cloudy
12:20 PM 59.0 °F 41.0 °F 51% 29.77 in 6.2 mi SSW 16.1 mph - N/A   Mostly Cloudy
12:50 PM 59.0 °F 42.8 °F 55% 29.77 in 6.2 mi SW 13.8 mph - N/A   Mostly Cloudy
1:20 PM 60.8 °F 44.6 °F 55% 29.77 in 6.2 mi SSW 16.1 mph - N/A   Mostly Cloudy
1:50 PM 59.0 °F 44.6 °F 59% 29.74 in 6.2 mi South 13.8 mph - N/A   Mostly Cloudy
2:20 PM 59.0 °F 44.6 °F 59% 29.77 in 6.2 mi South 15.0 mph - N/A   Mostly Cloudy
2:50 PM 59.0 °F 46.4 °F 63% 29.74 in 6.2 mi SSW 17.3 mph - N/A   Mostly Cloudy
3:20 PM 60.8 °F 48.2 °F 63% 29.74 in 6.2 mi SSW 16.1 mph - N/A   Mostly Cloudy
3:50 PM 60.8 °F 48.2 °F 63% 29.74 in 6.2 mi South 20.7 mph - N/A   Mostly Cloudy
4:20 PM 59.0 °F 48.2 °F 67% 29.74 in 6.2 mi SSW 21.9 mph - N/A   Mostly Cloudy
4:50 PM 59.0 °F 48.2 °F 67% 29.74 in 6.2 mi SSW 20.7 mph - N/A   Mostly Cloudy
5:20 PM 59.0 °F 48.2 °F 67% 29.74 in 6.2 mi South 20.7 mph - N/A   Mostly Cloudy
5:50 PM 59.0 °F 48.2 °F 67% 29.74 in 6.2 mi SSW 23.0 mph - N/A   Mostly Cloudy
6:20 PM 59.0 °F 50.0 °F 72% 29.74 in 6.2 mi South 23.0 mph - N/A   Mostly Cloudy
6:50 PM 59.0 °F 48.2 °F 67% 29.74 in 6.2 mi South 25.3 mph - N/A   Mostly Cloudy
7:20 PM 59.0 °F 48.2 °F 67% 29.71 in 6.2 mi South 26.5 mph - N/A   Mostly Cloudy
7:50 PM 59.0 °F 48.2 °F 67% 29.74 in 6.2 mi South 20.7 mph - N/A   Mostly Cloudy
8:20 PM 57.2 °F 50.0 °F 77% 29.71 in 6.2 mi SSW 21.9 mph - N/A   Mostly Cloudy
8:50 PM 59.0 °F 50.0 °F 72% 29.71 in 6.2 mi South 26.5 mph - N/A   Mostly Cloudy
9:20 PM 57.2 °F 50.0 °F 77% 29.71 in 6.2 mi SSW 24.2 mph - N/A Rain Light Rain
9:50 PM 59.0 °F 50.0 °F 72% 29.71 in 6.2 mi SSW 21.9 mph - N/A   Mostly Cloudy
10:20 PM 59.0 °F 48.2 °F 67% 29.71 in 6.2 mi South 25.3 mph - N/A   Mostly Cloudy
10:50 PM 57.2 °F 48.2 °F 72% 29.68 in 6.2 mi South 21.9 mph - N/A   Mostly Cloudy
11:20 PM 57.2 °F 48.2 °F 72% 29.68 in 6.2 mi South 15.0 mph - N/A   Mostly Cloudy
11:50 PM 59.0 °F 48.2 °F 67% 29.68 in 6.2 mi South 20.7 mph - N/A   Mostly Cloudy